Location: Ethel Rock
(53.4667°N, 4.5667°W)
Time: 05:22:56
(UTC+00:00)

CZ-3 R/B - Pass Details

Date: 24 October 2020
Orbit: 373 x 10236 km, 28.4° (Epoch: 25 November)

Event Time Altitude Azimuth Distance (km) Brightness Sun altitude
Rises 06:24:10 0° 251° (WSW) 8,695 5.9 -6.4°
Reaches altitude 10° 06:35:46 10° 231° (SW) 5,204 4.9 -4.7°
Maximum altitude 06:40:39 13° 210° (SSW) 3,866 4.5 -4.0°
Drops below altitude 10° 06:44:01 10° 186° (S) 3,302 4.4 -3.5°
Sets 06:47:50 0° 155° (SSE) 3,394 5.0 -3.0°
